Погода в Тустла-Гутьеррес

Мексика     16°42′37″N   93°06′51″W
темп.,
°C
ветер,
м/с
пор.,
м/с
влажн.,
%
обл.,
%
осадки,
мм/ч
давл.,
гПа
погр.,
м
7 мая, пт
пт701:00+21с1382100 0.6 1016153
04:00+21ссз2385100 1.6 1014152
07:00+20сз138898 3.2 1016132
10:00+26з225994 0.0 10161053
13:00+28зсз335280 1.1 10141529
16:00+26сз455988 1.4 10121103
19:00+25сз356260 2.0 1013481
22:00+21ссз137941 0.4 1016114
8 мая, сб
сб801:00+20ссз138297 0.4 1016110
04:00+19ссз138464 0.0 101595
07:00+19с128440 0.0 101667
10:00+26юз11545 0.0 1016931
13:00+30ююз223980 0.0 10131809
16:00+30сз124191 0.1 10101198
19:00+25ссз236188 0.5 1012282
22:00+24с1267100 0.4 1014111
9 мая, вс
вс901:00+22в017456 0.5 101459
04:00+22всв117624 0.0 101228
07:00+21в11805 0.0 101420
10:00+26ю22589 0.0 10141036
13:00+31ююз224117 0.1 10111821
16:00+33юв223688 0.4 10082309
19:00+23всв227597 2.1 1012148
22:00+22вюв01839 0.8 1013127
10 мая, пн
пн1001:00+22в118318 1.4 101323
04:00+21вюв11845 0.1 101113
07:00+20вюв11865 0.1 101318
10:00+26ю22625 0.0 1013825
13:00+31ююз224214 0.1 10111702
16:00+32юв113889 0.4 10081993
19:00+26ссз245981 0.6 1010298
22:00+25всв016578 0.3 101126
11 мая, вт
вт1101:00+24в016946 0.3 101220
04:00+22в017613 0.3 101114
07:00+21в118119 0.3 101340
10:00+27ю225937 0.0 1013969
13:00+32юз33382 0.0 10102081
16:00+33ююз223389 0.1 10072606
19:00+26с2357100 0.2 1009147
22:00+25всв1161100 0.0 101124